Location: Antist
(43.1184°N, 0.1270°E)
Time: 22:15:27
(UTC+00:00)

Envisat - Pass Details

Date: 19 January 2020
Orbit: 764 x 766 km, 98.1° (Epoch: 17 February)

Event Time Altitude Azimuth Distance (km) Brightness Sun altitude
Rises 17:49:39 0° 167° (SSE) 3,219 6.3 -10.2°
Reaches altitude 10° 17:51:57 10° 168° (SSE) 2,297 5.6 -10.6°
Maximum altitude 17:57:02 83° 257° (WSW) 777 3.1 -11.4°
Drops below altitude 10° 18:02:08 10° 346° (NNW) 2,313 5.5 -12.3°
Sets 18:04:27 0° 347° (NNW) 3,243 6.2 -12.7°
